Flag for U.S.A. Weather past 2 weeks in Boca Raton, Florida, U.S.A.

77 °F

Broken clouds.

Feels Like: 79 °F
Forecast: 75 / 79 °F
Wind: 17 mph from East

Location: Boca Raton Airport

Current Time: Nov 26, 2015 at 6:20:09 PM

Latest Report: Nov 26, 2015 at 5:15 PM

Visibility: 8 mi

Pressure: 30.23 "Hg

Humidity: 57%

Dew point: 61 °F

Location of Boca RatonLocation

Historic Weather in Boca Raton — Graph


Boca Raton temperature yesterday

Maximum temperature yesterday: 81 °F (at 11:55 AM)
Minimum temperature yesterday: 73 °F (at 12:15 AM)
Average temperature yesterday: 76 °F

Past Weeks' High & Low Weather Summary

High86 °F (Nov 12, 11:55 AM)100% (Nov 12, 1:15 AM)30.32 "Hg (Nov 12, 1:15 AM)
Low64 °F (Nov 23, 5:35 AM)44% (Nov 24, 10:55 AM)29.78 "Hg (Nov 22, 1:55 PM)
Average77 °F76%30.06 "Hg
* Reported Nov 11 4:15 PM — Nov 26 4:55 PM, Boca Raton, Weather by CustomWeather, © 2015

Note: Actual official high and low records may vary slightly from our data, if they occured in-between our weather recording intervals... More about our weather records


Boca Raton weather history for previous 24 hours

Time TempWeatherWind HumidityBarometerVisibility
4:55 PM
Thu, Nov 26
77 °FScattered clouds.17 mph54%30.23 "Hg8 mi
4:35 PM77 °FScattered clouds.14 mph54%30.23 "Hg7 mi
4:15 PM77 °FPartly sunny.17 mph54%30.23 "Hg7 mi
3:55 PM79 °FScattered clouds.18 mph54%30.23 "Hg7 mi
3:35 PM79 °FScattered clouds.22 mph51%30.23 "Hg7 mi
3:15 PM79 °FScattered clouds.23 mph54%30.24 "Hg7 mi
2:55 PM79 °FPassing clouds.21 mph51%30.24 "Hg8 mi
2:35 PM81 °FSunny.17 mph51%30.24 "Hg7 mi
2:15 PM79 °FSunny.21 mph58%30.25 "Hg7 mi
1:55 PM79 °FScattered clouds.23 mph58%30.26 "Hg6 mi
1:35 PM79 °FBroken clouds.17 mph58%30.26 "Hg7 mi
1:15 PM79 °FBroken clouds.21 mph58%30.27 "Hg6 mi
12:55 PM81 °FScattered clouds.17 mph54%30.27 "Hg6 mi
12:35 PM79 °FScattered clouds.23 mph58%30.28 "Hg7 mi
12:15 PM79 °FBroken clouds.20 mph58%30.29 "Hg7 mi
11:55 AM79 °FScattered clouds.18 mph58%30.29 "Hg6 mi
11:47 AM81 °FScattered clouds.23 mph51%30.30 "Hg10 mi
11:15 AM81 °FScattered clouds.23 mph54%30.31 "Hg7 mi
10:55 AM81 °FScattered clouds.23 mph54%30.31 "Hg7 mi
10:35 AM79 °FBroken clouds.23 mph54%30.32 "Hg7 mi
10:15 AM79 °FBroken clouds.18 mph58%30.32 "Hg7 mi
9:55 AM79 °FPartly sunny.21 mph54%30.32 "Hg8 mi
9:35 AM79 °FBroken clouds.21 mph54%30.31 "Hg8 mi
9:15 AM79 °FBroken clouds.22 mph54%30.30 "Hg7 mi
8:55 AM79 °FBroken clouds.18 mph58%30.30 "Hg7 mi
8:35 AM77 °FBroken clouds.17 mph61%30.29 "Hg7 mi
8:15 AM77 °FBroken clouds.23 mph57%30.28 "Hg6 mi
7:55 AM77 °FBroken clouds.24 mph61%30.27 "Hg6 mi
7:35 AM77 °FBroken clouds.24 mph61%30.27 "Hg7 mi
7:15 AM75 °FBroken clouds.23 mph65%30.26 "Hg7 mi
6:55 AM75 °FBroken clouds.26 mph65%30.25 "Hg7 mi
6:35 AM75 °FPartly cloudy.22 mph65%30.25 "Hg8 mi
6:15 AM75 °FPartly cloudy.20 mph65%30.24 "Hg8 mi
5:55 AM75 °FPartly cloudy.21 mph65%30.24 "Hg8 mi
5:15 AM75 °FPartly cloudy.22 mph65%30.23 "Hg9 mi
4:55 AM75 °FPartly cloudy.22 mph65%30.23 "Hg8 mi
4:35 AM75 °FPartly cloudy.20 mph65%30.22 "Hg9 mi
4:15 AM75 °FPartly cloudy.23 mph65%30.22 "Hg9 mi
3:55 AM75 °FPassing clouds.16 mph65%30.22 "Hg9 mi
3:35 AM75 °FPartly cloudy.18 mph65%30.22 "Hg9 mi
3:15 AM75 °FPassing clouds.18 mph65%30.22 "Hg9 mi
2:55 AM75 °FPassing clouds.22 mph65%30.22 "Hg8 mi
2:35 AM75 °FPassing clouds.20 mph65%30.23 "Hg10 mi
2:15 AM75 °FPassing clouds.21 mph65%30.23 "Hg9 mi
1:15 AM75 °FMostly cloudy.21 mph65%30.25 "Hg8 mi
12:55 AM75 °FMostly cloudy.21 mph65%30.25 "Hg9 mi
12:35 AM75 °FMostly cloudy.20 mph65%30.25 "Hg9 mi
12:15 AM75 °FPartly cloudy.21 mph61%30.26 "Hg9 mi
11:55 PM
Wed, Nov 25
75 °FPartly cloudy.22 mph61%30.26 "Hg10 mi
11:35 PM75 °FPartly cloudy.23 mph65%30.26 "Hg9 mi
10:55 PM75 °FPartly cloudy.26 mph65%30.26 "Hg9 mi
10:15 PM75 °FPartly cloudy.23 mph65%30.26 "Hg8 mi
9:56 PM75 °FPassing clouds.21 mph65%30.25 "Hg10 mi
9:15 PM77 °FMostly cloudy.24 mph61%30.25 "Hg8 mi
8:56 PM75 °FPassing clouds.21 mph65%30.25 "Hg10 mi
8:15 PM75 °FPartly cloudy.28 mph65%30.24 "Hg10 mi
7:35 PM75 °FPassing clouds.18 mph65%30.23 "Hg10 mi
7:15 PM75 °FPartly cloudy.18 mph65%30.23 "Hg10 mi
6:55 PM75 °FPassing clouds.21 mph65%30.22 "Hg10 mi
6:15 PM75 °FPartly cloudy.20 mph65%30.22 "Hg10 mi
Weather by CustomWeather, © 2015

See weather overviewHow to use our weather pages